Time,TemperatureF,DewpointF,PressureIn,WindDirection,WindDirectionDegrees,WindSpeedMPH,WindSpeedGustMPH,Humidity,HourlyPrecipIn,Conditions,Clouds,dailyrainin,SolarRadiationWatts/m^2,SoftwareType,DateUTC
2013-05-05 00:01:00,48.0,36.0,29.97,North,351,12.0,18.0,61,-99.99,,,-99.99,-0.100000,,2013-05-05 06:01:00,
2013-05-05 00:11:00,48.0,36.0,29.97,North,353,9.0,12.0,61,-99.99,,,-99.99,0.000000,,2013-05-05 06:11:00,
2013-05-05 00:21:00,48.0,35.0,29.97,North,6,9.0,11.0,61,-99.99,,,-99.99,-0.100000,,2013-05-05 06:21:00,
2013-05-05 00:31:00,49.0,35.0,29.97,NNE,19,9.0,12.0,59,-99.99,,,-99.99,0.100000,,2013-05-05 06:31:00,
2013-05-05 00:41:00,49.0,35.0,29.97,NNE,28,8.0,9.0,57,-99.99,,,-99.99,-0.100000,,2013-05-05 06:41:00,
2013-05-05 00:51:00,46.0,35.0,29.97,ENE,71,6.0,8.0,64,-99.99,,,-99.99,0.000000,,2013-05-05 06:51:00,
2013-05-05 01:01:00,44.0,35.0,29.97,East,86,2.0,4.0,70,-99.99,,,-99.99,0.000000,,2013-05-05 07:01:00,
2013-05-05 01:11:00,44.0,35.0,29.97,NNW,330,2.0,5.0,69,-99.99,,,-99.99,-0.100000,,2013-05-05 07:11:00,
2013-05-05 01:21:00,46.0,35.0,29.97,NNE,18,5.0,6.0,65,-99.99,,,-99.99,-0.100000,,2013-05-05 07:21:00,
2013-05-05 01:32:00,45.0,35.0,29.97,NE,41,5.0,7.0,67,-99.99,,,-99.99,-0.100000,,2013-05-05 07:32:00,
2013-05-05 01:42:00,48.0,35.0,29.97,NE,54,6.0,8.0,59,-99.99,,,-99.99,-0.100000,,2013-05-05 07:42:00,
2013-05-05 01:52:00,51.0,34.0,29.97,East,88,7.0,12.0,52,-99.99,,,-99.99,0.000000,,2013-05-05 07:52:00,
2013-05-05 02:02:00,52.0,34.0,29.97,SSE,147,10.0,17.0,51,-99.99,,,-99.99,-0.100000,,2013-05-05 08:02:00,
2013-05-05 02:11:00,52.0,35.0,29.96,East,95,7.0,12.0,52,-99.99,,,-99.99,0.000000,,2013-05-05 08:11:00,
2013-05-05 02:21:00,51.0,35.0,29.96,SE,138,6.0,13.0,53,-99.99,,,-99.99,0.000000,,2013-05-05 08:21:00,
2013-05-05 02:31:00,51.0,35.0,29.96,SSE,152,8.0,17.0,54,-99.99,,,-99.99,0.100000,,2013-05-05 08:31:00,
2013-05-05 02:42:00,50.0,35.0,29.96,ESE,104,7.0,10.0,54,-99.99,,,-99.99,-0.100000,,2013-05-05 08:42:00,
2013-05-05 02:52:00,49.0,35.0,29.96,NNE,31,8.0,13.0,58,-99.99,,,-99.99,-0.100000,,2013-05-05 08:52:00,
2013-05-05 03:01:00,50.0,34.0,29.96,ENE,69,4.0,6.0,55,-99.99,,,-99.99,0.000000,,2013-05-05 09:01:00,
2013-05-05 03:11:00,51.0,34.0,29.96,SSE,168,4.0,5.0,52,-99.99,,,-99.99,-0.200000,,2013-05-05 09:11:00,
2013-05-05 03:21:00,48.0,34.0,29.96,North,2,3.0,5.0,58,-99.99,,,-99.99,0.000000,,2013-05-05 09:21:00,
2013-05-05 03:32:00,46.0,34.0,29.96,NE,55,5.0,6.0,62,-99.99,,,-99.99,-0.100000,,2013-05-05 09:32:00,
2013-05-05 03:42:00,46.0,34.0,29.96,NNW,337,8.0,9.0,63,-99.99,,,-99.99,-0.100000,,2013-05-05 09:42:00,
2013-05-05 03:52:00,45.0,34.0,29.96,North,6,5.0,8.0,66,-99.99,,,-99.99,-0.100000,,2013-05-05 09:52:00,
2013-05-05 04:02:00,45.0,34.0,29.95,ENE,75,6.0,10.0,63,-99.99,,,-99.99,0.000000,,2013-05-05 10:02:00,
2013-05-05 04:12:00,43.0,34.0,29.96,WSW,244,2.0,4.0,70,-99.99,,,-99.99,-0.100000,,2013-05-05 10:12:00,
2013-05-05 04:22:00,46.0,34.0,29.95,NW,323,2.0,4.0,64,-99.99,,,-99.99,0.000000,,2013-05-05 10:22:00,
2013-05-05 04:32:00,45.0,34.0,29.95,NNE,21,3.0,6.0,65,-99.99,,,-99.99,0.000000,,2013-05-05 10:32:00,
2013-05-05 04:42:00,48.0,34.0,29.95,NNW,340,6.0,9.0,59,-99.99,,,-99.99,0.000000,,2013-05-05 10:42:00,
2013-05-05 04:52:00,45.0,34.0,29.95,NE,52,4.0,6.0,66,-99.99,,,-99.99,0.000000,,2013-05-05 10:52:00,
2013-05-05 05:01:00,43.0,34.0,29.95,NE,34,2.0,3.0,69,-99.99,,,-99.99,0.000000,,2013-05-05 11:01:00,
2013-05-05 05:11:00,42.0,34.0,29.95,NE,49,4.0,4.0,72,-99.99,,,-99.99,-0.100000,,2013-05-05 11:11:00,
2013-05-05 05:21:00,43.0,34.0,29.95,NNE,19,6.0,9.0,69,-99.99,,,-99.99,-0.200000,,2013-05-05 11:21:00,
2013-05-05 05:32:00,44.0,34.0,29.95,NE,45,7.0,9.0,68,-99.99,,,-99.99,-0.200000,,2013-05-05 11:32:00,
2013-05-05 05:41:00,43.0,33.0,29.95,NE,36,3.0,6.0,68,-99.99,,,-99.99,0.000000,,2013-05-05 11:41:00,
2013-05-05 05:51:00,40.0,33.0,29.94,ESE,112,2.0,3.0,75,-99.99,,,-99.99,-0.100000,,2013-05-05 11:51:00,
2013-05-05 06:01:00,41.0,34.0,29.94,WNW,302,5.0,8.0,74,-99.99,,,-99.99,-0.100000,,2013-05-05 12:01:00,
2013-05-05 06:11:00,42.0,34.0,29.94,North,353,5.0,8.0,72,-99.99,,,-99.99,-0.100000,,2013-05-05 12:11:00,
2013-05-05 06:21:00,41.0,34.0,29.94,ENE,59,3.0,5.0,75,-99.99,,,-99.99,0.200000,,2013-05-05 12:21:00,
2013-05-05 06:31:00,42.0,34.0,29.94,North,356,7.0,9.0,71,-99.99,,,-99.99,1.100000,,2013-05-05 12:31:00,
2013-05-05 06:42:00,42.0,34.0,29.94,North,353,7.0,9.0,72,-99.99,,,-99.99,3.800000,,2013-05-05 12:42:00,
2013-05-05 06:51:00,43.0,34.0,29.94,North,8,10.0,11.0,69,-99.99,,,-99.99,11.800000,,2013-05-05 12:51:00,
2013-05-05 07:01:00,44.0,34.0,29.94,NNE,32,9.0,12.0,67,-99.99,,,-99.99,32.400002,,2013-05-05 13:01:00,
2013-05-05 07:11:00,40.0,33.0,29.94,ESE,102,5.0,7.0,75,-99.99,,,-99.99,35.900002,,2013-05-05 13:11:00,
2013-05-05 07:21:00,42.0,33.0,29.94,NE,37,5.0,6.0,71,-99.99,,,-99.99,76.900002,,2013-05-05 13:21:00,
2013-05-05 07:32:00,43.0,34.0,29.94,NE,53,6.0,7.0,69,-99.99,,,-99.99,103.000000,,2013-05-05 13:32:00,
2013-05-05 07:42:00,43.0,34.0,29.94,ENE,58,7.0,8.0,70,-99.99,,,-99.99,139.100006,,2013-05-05 13:42:00,
2013-05-05 07:52:00,46.0,35.0,29.94,ENE,66,5.0,7.0,65,-99.99,,,-99.99,170.600006,,2013-05-05 13:52:00,
2013-05-05 08:01:00,45.0,36.0,29.94,SSE,149,2.0,3.0,71,-99.99,,,-99.99,172.899994,,2013-05-05 14:01:00,
2013-05-05 08:11:00,48.0,37.0,29.94,East,82,4.0,8.0,64,-99.99,,,-99.99,234.100006,,2013-05-05 14:11:00,
2013-05-05 08:21:00,50.0,36.0,29.94,ENE,72,4.0,11.0,56,-99.99,,,-99.99,263.100006,,2013-05-05 14:21:00,
2013-05-05 08:31:00,53.0,35.0,29.94,ENE,68,12.0,15.0,50,-99.99,,,-99.99,300.500000,,2013-05-05 14:31:00,
2013-05-05 08:41:00,54.0,34.0,29.94,ENE,65,12.0,15.0,46,-99.99,,,-99.99,336.899994,,2013-05-05 14:41:00,
2013-05-05 08:51:00,55.0,34.0,29.94,ENE,70,11.0,15.0,45,-99.99,,,-99.99,372.100006,,2013-05-05 14:51:00,
2013-05-05 09:01:00,55.0,33.0,29.94,ENE,70,13.0,17.0,43,-99.99,,,-99.99,364.100006,,2013-05-05 15:01:00,
2013-05-05 09:11:00,56.0,33.0,29.94,ENE,61,14.0,17.0,42,-99.99,,,-99.99,427.000000,,2013-05-05 15:11:00,
2013-05-05 09:21:00,57.0,32.0,29.94,ENE,60,13.0,17.0,39,-99.99,,,-99.99,382.600006,,2013-05-05 15:21:00,
2013-05-05 09:32:00,57.0,31.0,29.94,NE,56,13.0,17.0,37,-99.99,,,-99.99,413.299988,,2013-05-05 15:32:00,
2013-05-05 09:42:00,58.0,31.0,29.94,NE,52,13.0,16.0,36,-99.99,,,-99.99,330.000000,,2013-05-05 15:42:00,
2013-05-05 09:53:00,57.0,31.0,29.95,NE,52,13.0,16.0,37,-99.99,,,-99.99,272.799988,,2013-05-05 15:53:00,
2013-05-05 10:02:00,58.0,31.0,29.94,ENE,62,11.0,16.0,35,-99.99,,,-99.99,440.600006,,2013-05-05 16:02:00,
2013-05-05 10:12:00,58.0,30.0,29.94,NE,44,13.0,16.0,34,-99.99,,,-99.99,478.100006,,2013-05-05 16:12:00,
2013-05-05 10:22:00,58.0,29.0,29.94,NE,40,10.0,14.0,33,-99.99,,,-99.99,493.500000,,2013-05-05 16:22:00,
2013-05-05 10:32:00,59.0,30.0,29.94,NE,36,13.0,15.0,32,-99.99,,,-99.99,678.400024,,2013-05-05 16:32:00,
2013-05-05 10:42:00,60.0,29.0,29.94,NE,38,11.0,13.0,31,-99.99,,,-99.99,325.000000,,2013-05-05 16:42:00,
2013-05-05 10:52:00,59.0,29.0,29.95,NE,46,8.0,14.0,31,-99.99,,,-99.99,316.299988,,2013-05-05 16:52:00,
2013-05-05 11:01:00,59.0,29.0,29.95,NNE,22,8.0,12.0,32,-99.99,,,-99.99,303.100006,,2013-05-05 17:01:00,
2013-05-05 11:12:00,59.0,31.0,29.94,NNE,23,9.0,14.0,34,-99.99,,,-99.99,277.600006,,2013-05-05 17:12:00,
2013-05-05 11:23:00,59.0,32.0,29.94,NNE,14,10.0,14.0,36,-99.99,,,-99.99,284.799988,,2013-05-05 17:23:00,
2013-05-05 11:31:00,59.0,35.0,29.94,North,10,14.0,19.0,41,-99.99,,,-99.99,309.600006,,2013-05-05 17:31:00,
2013-05-05 11:41:00,61.0,30.0,29.94,ENE,73,11.0,13.0,32,-99.99,,,-99.99,377.700012,,2013-05-05 17:41:00,
2013-05-05 11:52:00,61.0,31.0,29.94,SSE,167,5.0,8.0,32,-99.99,,,-99.99,491.299988,,2013-05-05 17:52:00,
2013-05-05 12:01:00,61.0,30.0,29.94,SSW,201,6.0,10.0,31,-99.99,,,-99.99,533.200012,,2013-05-05 18:01:00,
2013-05-05 12:11:00,61.0,30.0,29.95,NE,40,3.0,7.0,30,-99.99,,,-99.99,356.799988,,2013-05-05 18:11:00,
2013-05-05 12:21:00,61.0,30.0,29.94,NNE,29,8.0,11.0,31,-99.99,,,-99.99,400.299988,,2013-05-05 18:21:00,
2013-05-05 12:31:00,62.0,30.0,29.94,NNE,20,8.0,11.0,30,-99.99,,,-99.99,830.000000,,2013-05-05 18:31:00,
2013-05-05 12:41:00,62.0,29.0,29.94,North,358,8.0,11.0,29,-99.99,,,-99.99,425.899994,,2013-05-05 18:41:00,
2013-05-05 12:51:00,62.0,30.0,29.94,North,353,8.0,13.0,29,-99.99,,,-99.99,576.000000,,2013-05-05 18:51:00,
2013-05-05 13:01:00,62.0,29.0,29.94,North,4,7.0,9.0,29,-99.99,,,-99.99,576.900024,,2013-05-05 19:01:00,
2013-05-05 13:11:00,62.0,29.0,29.93,NNE,27,6.0,7.0,28,-99.99,,,-99.99,454.899994,,2013-05-05 19:11:00,
2013-05-05 13:21:00,62.0,29.0,29.93,North,2,6.0,9.0,28,-99.99,,,-99.99,808.000000,,2013-05-05 19:21:00,
2013-05-05 13:32:00,63.0,29.0,29.92,North,355,8.0,12.0,27,-99.99,,,-99.99,870.000000,,2013-05-05 19:32:00,
2013-05-05 13:41:00,65.0,32.0,29.92,North,350,6.0,10.0,28,-99.99,,,-99.99,1041.000000,,2013-05-05 19:41:00,
2013-05-05 13:51:00,66.0,33.0,29.92,North,357,10.0,15.0,29,-99.99,,,-99.99,805.000000,,2013-05-05 19:51:00,
2013-05-05 14:01:00,66.0,33.0,29.91,NNE,21,9.0,16.0,29,-99.99,,,-99.99,958.000000,,2013-05-05 20:01:00,
2013-05-05 14:11:00,66.0,33.0,29.91,NNW,341,8.0,14.0,28,-99.99,,,-99.99,877.000000,,2013-05-05 20:11:00,
2013-05-05 14:21:00,67.0,32.0,29.91,North,359,11.0,18.0,28,-99.99,,,-99.99,825.000000,,2013-05-05 20:21:00,
2013-05-05 14:31:00,65.0,32.0,29.91,NNE,22,11.0,17.0,28,-99.99,,,-99.99,407.399994,,2013-05-05 20:31:00,
2013-05-05 14:41:00,67.0,33.0,29.90,North,10,9.0,11.0,28,-99.99,,,-99.99,744.799988,,2013-05-05 20:41:00,
2013-05-05 14:52:00,66.0,32.0,29.90,North,0,9.0,12.0,28,-99.99,,,-99.99,359.200012,,2013-05-05 20:52:00,
2013-05-05 15:01:00,66.0,31.0,29.90,NNW,338,9.0,13.0,27,-99.99,,,-99.99,467.100006,,2013-05-05 21:01:00,
2013-05-05 15:11:00,67.0,32.0,29.90,NNW,343,9.0,13.0,27,-99.99,,,-99.99,857.000000,,2013-05-05 21:11:00,
2013-05-05 15:21:00,68.0,32.0,29.90,North,1,10.0,14.0,26,-99.99,,,-99.99,986.000000,,2013-05-05 21:21:00,
2013-05-05 15:32:00,67.0,31.0,29.90,NNW,342,8.0,12.0,26,-99.99,,,-99.99,759.000000,,2013-05-05 21:32:00,
2013-05-05 15:42:00,68.0,32.0,29.90,North,359,10.0,15.0,26,-99.99,,,-99.99,641.599976,,2013-05-05 21:42:00,
2013-05-05 15:52:00,67.0,31.0,29.89,NNE,13,8.0,13.0,26,-99.99,,,-99.99,581.700012,,2013-05-05 21:52:00,
2013-05-05 16:02:00,68.0,31.0,29.89,NNW,338,9.0,13.0,25,-99.99,,,-99.99,790.799988,,2013-05-05 22:02:00,
2013-05-05 16:12:00,69.0,31.0,29.88,NNW,341,11.0,16.0,25,-99.99,,,-99.99,560.299988,,2013-05-05 22:12:00,
2013-05-05 16:22:00,68.0,30.0,29.89,NW,319,9.0,11.0,24,-99.99,,,-99.99,214.600006,,2013-05-05 22:22:00,
2013-05-05 16:33:00,68.0,30.0,29.88,NW,311,7.0,9.0,24,-99.99,,,-99.99,164.600006,,2013-05-05 22:33:00,
2013-05-05 16:41:00,67.0,33.0,29.88,North,360,5.0,7.0,28,-99.99,,,-99.99,141.500000,,2013-05-05 22:41:00,
2013-05-05 16:52:00,66.0,36.0,29.88,North,6,6.0,9.0,32,-99.99,,,-99.99,206.100006,,2013-05-05 22:52:00,
2013-05-05 17:02:00,66.0,36.0,29.88,NNW,347,7.0,9.0,33,-99.99,,,-99.99,388.000000,,2013-05-05 23:02:00,
2013-05-05 17:11:00,67.0,34.0,29.87,North,352,6.0,9.0,29,-99.99,,,-99.99,613.000000,,2013-05-05 23:11:00,
2013-05-05 17:21:00,68.0,32.0,29.87,North,8,6.0,9.0,26,-99.99,,,-99.99,599.299988,,2013-05-05 23:21:00,
2013-05-05 17:31:00,68.0,31.0,29.87,NE,35,5.0,9.0,25,-99.99,,,-99.99,595.400024,,2013-05-05 23:31:00,
2013-05-05 17:41:00,69.0,32.0,29.87,North,349,10.0,13.0,25,-99.99,,,-99.99,497.299988,,2013-05-05 23:41:00,
2013-05-05 17:52:00,68.0,30.0,29.87,NNE,33,10.0,14.0,24,-99.99,,,-99.99,341.600006,,2013-05-05 23:52:00,
2013-05-05 18:01:00,69.0,31.0,29.87,NE,38,10.0,14.0,25,-99.99,,,-99.99,543.900024,,2013-05-06 00:01:00,
2013-05-05 18:11:00,69.0,30.0,29.87,NE,39,10.0,13.0,23,-99.99,,,-99.99,373.100006,,2013-05-06 00:11:00,
2013-05-05 18:21:00,68.0,29.0,29.87,NNE,25,9.0,14.0,23,-99.99,,,-99.99,184.000000,,2013-05-06 00:21:00,
2013-05-05 18:31:00,68.0,29.0,29.87,ENE,70,7.0,12.0,23,-99.99,,,-99.99,205.300003,,2013-05-06 00:31:00,
2013-05-05 18:41:00,69.0,30.0,29.87,NNE,28,9.0,13.0,23,-99.99,,,-99.99,381.600006,,2013-05-06 00:41:00,
2013-05-05 18:51:00,69.0,30.0,29.87,NNE,16,8.0,12.0,23,-99.99,,,-99.99,324.500000,,2013-05-06 00:51:00,
2013-05-05 19:01:00,69.0,31.0,29.86,NE,37,15.0,17.0,24,-99.99,,,-99.99,297.000000,,2013-05-06 01:01:00,
2013-05-05 19:11:00,68.0,31.0,29.86,NNE,23,12.0,17.0,24,-99.99,,,-99.99,249.100006,,2013-05-06 01:11:00,
2013-05-05 19:21:00,68.0,32.0,29.86,NE,53,17.0,20.0,27,-99.99,,,-99.99,141.500000,,2013-05-06 01:21:00,
2013-05-05 19:31:00,67.0,33.0,29.87,NE,54,17.0,20.0,28,-99.99,,,-99.99,105.300003,,2013-05-06 01:31:00,
2013-05-05 19:41:00,66.0,32.0,29.87,ENE,69,15.0,19.0,28,-99.99,,,-99.99,97.400002,,2013-05-06 01:41:00,
2013-05-05 19:51:00,66.0,32.0,29.87,ENE,72,12.0,15.0,28,-99.99,,,-99.99,87.800003,,2013-05-06 01:51:00,
2013-05-05 20:01:00,65.0,32.0,29.87,ENE,74,11.0,14.0,29,-99.99,,,-99.99,69.400002,,2013-05-06 02:01:00,
2013-05-05 20:11:00,64.0,32.0,29.87,East,81,10.0,13.0,30,-99.99,,,-99.99,40.900002,,2013-05-06 02:11:00,
2013-05-05 20:21:00,63.0,32.0,29.87,East,85,10.0,13.0,31,-99.99,,,-99.99,28.500000,,2013-05-06 02:21:00,
2013-05-05 20:31:00,62.0,32.0,29.87,East,95,10.0,13.0,31,-99.99,,,-99.99,19.100000,,2013-05-06 02:31:00,
2013-05-05 20:42:00,62.0,31.0,29.88,East,91,11.0,13.0,31,-99.99,,,-99.99,10.700000,,2013-05-06 02:42:00,
2013-05-05 20:51:00,61.0,31.0,29.88,East,84,11.0,14.0,32,-99.99,,,-99.99,3.100000,,2013-05-06 02:51:00,
2013-05-05 21:01:00,60.0,32.0,29.88,East,80,12.0,15.0,34,-99.99,,,-99.99,1.300000,,2013-05-06 03:01:00,
2013-05-05 21:11:00,59.0,31.0,29.88,East,82,13.0,16.0,34,-99.99,,,-99.99,0.100000,,2013-05-06 03:11:00,
2013-05-05 21:21:00,58.0,32.0,29.88,ENE,77,11.0,14.0,37,-99.99,,,-99.99,0.000000,,2013-05-06 03:21:00,
2013-05-05 21:33:00,56.0,33.0,29.89,ENE,74,10.0,11.0,41,-99.99,,,-99.99,-0.100000,,2013-05-06 03:33:00,
2013-05-05 21:42:00,55.0,33.0,29.89,East,82,11.0,15.0,42,-99.99,,,-99.99,-0.100000,,2013-05-06 03:42:00,
2013-05-05 21:52:00,57.0,32.0,29.88,East,85,13.0,17.0,38,-99.99,,,-99.99,-0.100000,,2013-05-06 03:52:00,
2013-05-05 22:02:00,57.0,31.0,29.89,East,84,16.0,22.0,38,-99.99,,,-99.99,-0.100000,,2013-05-06 04:02:00,
2013-05-05 22:12:00,57.0,31.0,29.89,East,84,17.0,20.0,38,-99.99,,,-99.99,-0.100000,,2013-05-06 04:12:00,
2013-05-05 22:22:00,57.0,31.0,29.89,East,88,15.0,20.0,38,-99.99,,,-99.99,-0.100000,,2013-05-06 04:22:00,
2013-05-05 22:32:00,57.0,31.0,29.89,East,89,13.0,17.0,38,-99.99,,,-99.99,0.000000,,2013-05-06 04:32:00,
2013-05-05 22:42:00,56.0,31.0,29.89,East,89,12.0,16.0,38,-99.99,,,-99.99,-0.100000,,2013-05-06 04:42:00,
2013-05-05 22:52:00,56.0,30.0,29.89,East,92,11.0,14.0,38,-99.99,,,-99.99,0.000000,,2013-05-06 04:52:00,
2013-05-05 23:02:00,56.0,29.0,29.89,East,94,11.0,16.0,36,-99.99,,,-99.99,-0.100000,,2013-05-06 05:02:00,
2013-05-05 23:12:00,54.0,30.0,29.89,East,81,12.0,15.0,39,-99.99,,,-99.99,-0.100000,,2013-05-06 05:12:00,
2013-05-05 23:21:00,56.0,29.0,29.88,East,87,11.0,14.0,35,-99.99,,,-99.99,-0.100000,,2013-05-06 05:21:00,
2013-05-05 23:31:00,56.0,30.0,29.89,NNE,16,3.0,5.0,37,-99.99,,,-99.99,-0.100000,,2013-05-06 05:31:00,
2013-05-05 23:42:00,55.0,30.0,29.88,NE,46,9.0,11.0,38,-99.99,,,-99.99,0.000000,,2013-05-06 05:42:00,
2013-05-05 23:52:00,54.0,30.0,29.88,ENE,73,10.0,13.0,39,-99.99,,,-99.99,-0.100000,,2013-05-06 05:52:00,